| time (UTC) | temp C | wind direction | speed KPH | gust KPH | rain 1hr cm | rain 24hr cm | rain mn cm | humidity % | barometer mb |
| 20260505192439 | 28 | 256 | 12.9 | 17.7 | 0.00 | 0.00 | 0.00 | 35 | 1006.9 |
| 20260505185438 | 28 | 200 | 8.0 | 14.5 | 0.00 | 0.00 | 0.00 | 34 | 1007.2 |
| 20260505182437 | 28 | 277 | 1.6 | 14.5 | 0.00 | 0.00 | 0.00 | 35 | 1007.9 |
| 20260505172435 | 27 | 283 | 0.0 | 12.9 | 0.00 | 0.00 | 0.00 | 39 | 1008.3 |
| 20260505162434 | 26 | 247 | 1.6 | 9.7 | 0.00 | 0.00 | 0.00 | 43 | 1009.4 |
| 20260505152432 | 25 | 183 | 4.8 | 19.3 | 0.00 | 0.00 | 0.00 | 46 | 1009.7 |
| 20260505122427 | 16 | 168 | 0.0 | 0.0 | 0.00 | 0.00 | 0.00 | 74 | 1010.7 |
| 20260505115426 | 14 | 168 | 0.0 | 0.0 | 0.00 | 0.00 | 0.00 | 82 | 1010.4 |
| 20260505095422 | 9 | 167 | 0.0 | 0.0 | 0.00 | 0.00 | 0.00 | 89 | 1009.3 |
| 20260505092421 | 10 | 168 | 0.0 | 0.0 | 0.00 | 0.00 | 0.00 | 89 | 1009.4 |
| 20260505085420 | 10 | 167 | 0.0 | 0.0 | 0.00 | 0.00 | 0.00 | 89 | 1009.4 |
| 20260505082420 | 10 | 168 | 0.0 | 0.0 | 0.00 | 0.00 | 0.00 | 88 | 1009.3 |
| 20260505075418 | 11 | 168 | 0.0 | 0.0 | 0.00 | 0.00 | 0.00 | 87 | 1009.2 |
| 20260505072418 | 12 | 168 | 0.0 | 0.0 | 0.00 | 0.00 | 0.00 | 86 | 1009.1 |
| 20260505065417 | 12 | 168 | 0.0 | 0.0 | 0.00 | 0.00 | 0.00 | 85 | 1009.0 |
| 20260505062416 | 13 | 168 | 0.0 | 0.0 | 0.00 | 0.00 | 0.00 | 83 | 1009.1 |
| 20260505055446 | 13 | 168 | 0.0 | 0.0 | 0.00 | 0.00 | 0.00 | 79 | 1009.3 |
| 20260505052414 | 14 | 168 | 0.0 | 0.0 | 0.00 | 0.00 | 0.00 | 71 | 1009.4 |
| 20260505035442 | 18 | 168 | 0.0 | 0.0 | 0.00 | 0.00 | 0.00 | 53 | 1009.1 |
| 20260505032441 | 18 | 167 | 0.0 | 0.0 | 0.00 | 0.00 | 0.00 | 51 | 1009.0 |
| 20260505015439 | 20 | 258 | 0.0 | 0.0 | 0.00 | 0.00 | 0.00 | 43 | 1009.0 |
| 20260505012438 | 21 | 186 | 4.8 | 11.3 | 0.00 | 0.00 | 0.00 | 42 | 1008.8 |
| 20260505005437 | 21 | 207 | 0.0 | 8.0 | 0.00 | 0.00 | 0.00 | 41 | 1008.5 |
| 20260505002436 | 21 | 217 | 1.6 | 4.8 | 0.00 | 0.00 | 0.00 | 41 | 1008.2 |
| 20260504235435 | 21 | 242 | 3.2 | 4.8 | 0.00 | 0.00 | 0.00 | 42 | 1008.2 |
| 20260504232434 | 22 | 157 | 9.7 | 19.3 | 0.00 | 0.00 | 0.00 | 41 | 1007.9 |
| 20260504225434 | 22 | 234 | 1.6 | 24.1 | 0.00 | 0.00 | 0.00 | 38 | 1007.7 |
| 20260504222433 | 23 | 211 | 3.2 | 8.0 | 0.00 | 0.00 | 0.00 | 38 | 1007.6 |
| 20260504212431 | 25 | 213 | 1.6 | 11.3 | 0.00 | 0.00 | 0.00 | 33 | 1007.6 |
| 20260504205430 | 25 | 269 | 8.0 | 12.9 | 0.00 | 0.00 | 0.00 | 33 | 1007.6 |
| 20260504202429 | 24 | 279 | 0.0 | 12.9 | 0.00 | 0.00 | 0.00 | 35 | 1008.1 |